QLK223 YSSY-YMML

Flight info

Callsign QLK223
Flight time 1h 10m
Altitude 36000
Route WOL H65 LEECE Q29 ML
Aircraft A319/M-SDE3FGHIRWY/LB1

Departure

Time 2026-04-21 04:31
Airport Sydney Kingsford Smith International Airport (YSSY)

Arrival

Time 2026-04-21 05:42
Airport Melbourne Airport (YMML)
Time Latitude Longitude Altitude Speed Heading
2026-04-21 04:18 -33.93156 151.17801 30 ft 0 kts 191°
2026-04-21 04:20 -33.93155 151.17801 29 ft 0 kts 191°
2026-04-21 04:23 -33.93140 151.17804 30 ft 2 kts 196°
2026-04-21 04:24 -33.93124 151.17809 30 ft 2 kts 196°
2026-04-21 04:24 -33.93108 151.17813 30 ft 2 kts 192°
2026-04-21 04:24 -33.93092 151.17818 30 ft 2 kts 200°
2026-04-21 04:24 -33.93077 151.17826 30 ft 2 kts 216°
2026-04-21 04:25 -33.93068 151.17841 30 ft 1 kts 283°
2026-04-21 04:25 -33.93069 151.17844 31 ft 0 kts 280°
2026-04-21 04:27 -33.93063 151.17807 31 ft 12 kts 279°
2026-04-21 04:27 -33.93024 151.17684 30 ft 17 kts 295°
2026-04-21 04:27 -33.93014 151.17648 30 ft 1 kts 283°
2026-04-21 04:27 -33.93008 151.17613 30 ft 8 kts 279°
2026-04-21 04:28 -33.92995 151.17526 30 ft 12 kts 281°
2026-04-21 04:28 -33.92975 151.17404 24 ft 20 kts 281°
2026-04-21 04:28 -33.92961 151.17318 21 ft 0 kts 281°
2026-04-21 04:29 -33.92961 151.17315 21 ft 2 kts 281°
2026-04-21 04:30 -33.92955 151.17259 20 ft 13 kts 268°
2026-04-21 04:30 -33.93055 151.17190 20 ft 20 kts 169°
2026-04-21 04:30 -33.93117 151.17206 22 ft 0 kts 168°
2026-04-21 04:30 -33.93136 151.17211 21 ft 13 kts 168°
2026-04-21 04:31 -33.93421 151.17283 16 ft 72 kts 168°
2026-04-21 04:31 -33.94097 151.17460 20 ft 125 kts 168°
2026-04-21 04:31 -33.95092 151.17721 141 ft 159 kts 170°
2026-04-21 04:31 -33.96172 151.17974 850 ft 158 kts 175°
2026-04-21 04:32 -33.97253 151.17965 1627 ft 157 kts 182°
2026-04-21 04:32 -33.98383 151.17879 2098 ft 174 kts 182°
2026-04-21 04:32 -33.99676 151.17773 2486 ft 198 kts 183°
2026-04-21 04:32 -34.01132 151.17655 2965 ft 222 kts 182°
2026-04-21 04:33 -34.02744 151.17602 3605 ft 239 kts 173°
2026-04-21 04:33 -34.04384 151.18068 4550 ft 244 kts 166°
2026-04-21 04:33 -34.06037 151.18608 5518 ft 248 kts 167°
2026-04-21 04:33 -34.07766 151.18755 6431 ft 253 kts 188°
2026-04-21 04:34 -34.09413 151.17966 7321 ft 260 kts 211°
2026-04-21 04:34 -34.10924 151.16744 8210 ft 263 kts 212°
2026-04-21 04:34 -34.12440 151.15480 9078 ft 267 kts 212°
2026-04-21 04:34 -34.13979 151.14183 9935 ft 272 kts 213°
2026-04-21 04:35 -34.15570 151.12841 10449 ft 289 kts 213°
2026-04-21 04:35 -34.17287 151.11407 10791 ft 308 kts 212°
2026-04-21 04:35 -34.19047 151.09938 11431 ft 315 kts 213°
2026-04-21 04:35 -34.20883 151.08405 12174 ft 318 kts 213°
2026-04-21 04:36 -34.22690 151.06893 12913 ft 322 kts 213°
2026-04-21 04:36 -34.24540 151.05344 13674 ft 325 kts 213°
2026-04-21 04:36 -34.26432 151.03759 14386 ft 328 kts 213°
2026-04-21 04:36 -34.28296 151.02199 15019 ft 332 kts 213°
2026-04-21 04:37 -34.30202 151.00602 15664 ft 335 kts 213°
2026-04-21 04:37 -34.32129 150.98985 16305 ft 338 kts 213°
2026-04-21 04:37 -34.34073 150.97353 16943 ft 342 kts 213°
2026-04-21 04:37 -34.36037 150.95709 17591 ft 345 kts 213°
2026-04-21 04:38 -34.38017 150.94053 18234 ft 348 kts 213°
2026-04-21 04:38 -34.40015 150.92382 18839 ft 351 kts 213°
2026-04-21 04:38 -34.42031 150.90694 19408 ft 353 kts 213°
2026-04-21 04:38 -34.44058 150.88994 19993 ft 355 kts 213°
2026-04-21 04:39 -34.46093 150.87283 20590 ft 357 kts 213°
2026-04-21 04:39 -34.48141 150.85557 21179 ft 360 kts 213°
2026-04-21 04:39 -34.50199 150.83818 21763 ft 362 kts 213°
2026-04-21 04:39 -34.52268 150.82068 22330 ft 364 kts 212°
2026-04-21 04:40 -34.54346 150.80304 22881 ft 366 kts 214°
2026-04-21 04:40 -34.56246 150.78210 23432 ft 372 kts 225°
2026-04-21 04:40 -34.57848 150.75715 23961 ft 377 kts 230°
2026-04-21 04:40 -34.59401 150.73137 24411 ft 379 kts 230°
2026-04-21 04:41 -34.60961 150.70549 24850 ft 381 kts 230°
2026-04-21 04:41 -34.62531 150.67947 25264 ft 383 kts 230°
2026-04-21 04:41 -34.64111 150.65328 25715 ft 385 kts 230°
2026-04-21 04:41 -34.65697 150.62700 26140 ft 387 kts 230°
2026-04-21 04:42 -34.67293 150.60053 26564 ft 389 kts 230°
2026-04-21 04:42 -34.68896 150.57388 26981 ft 391 kts 230°
2026-04-21 04:42 -34.70503 150.54706 27387 ft 394 kts 230°
2026-04-21 04:42 -34.72116 150.52009 27795 ft 396 kts 230°
2026-04-21 04:43 -34.73189 150.50213 28071 ft 397 kts 230°
2026-04-21 04:43 -34.74819 150.47488 28475 ft 399 kts 230°
2026-04-21 04:43 -34.76457 150.44751 28831 ft 402 kts 230°
2026-04-21 04:43 -34.78107 150.41997 29270 ft 404 kts 230°
2026-04-21 04:44 -34.79768 150.39223 29672 ft 406 kts 230°
2026-04-21 04:44 -34.81435 150.36439 30060 ft 408 kts 230°
2026-04-21 04:44 -34.82836 150.34093 30371 ft 409 kts 230°
2026-04-21 04:44 -34.84515 150.31280 30696 ft 412 kts 230°
2026-04-21 04:45 -34.86200 150.28456 31024 ft 414 kts 230°
2026-04-21 04:45 -34.87895 150.25610 31337 ft 415 kts 230°
2026-04-21 04:45 -34.89590 150.22760 31650 ft 417 kts 230°
2026-04-21 04:45 -34.91294 150.19892 31950 ft 418 kts 230°
2026-04-21 04:46 -34.92999 150.17019 32364 ft 417 kts 230°
2026-04-21 04:46 -34.94697 150.14158 32818 ft 415 kts 229°
2026-04-21 04:46 -34.96386 150.11309 33267 ft 414 kts 229°
2026-04-21 04:46 -34.98068 150.08468 33715 ft 412 kts 229°
2026-04-21 04:47 -34.99742 150.05644 34162 ft 411 kts 229°
2026-04-21 04:47 -35.01417 150.02818 34579 ft 409 kts 229°
2026-04-21 04:47 -35.03081 150.00004 34941 ft 408 kts 229°
2026-04-21 04:47 -35.04737 149.97199 35287 ft 407 kts 229°
2026-04-21 04:48 -35.06394 149.94395 35630 ft 407 kts 229°
2026-04-21 04:48 -35.08046 149.91597 35959 ft 406 kts 229°
2026-04-21 04:48 -35.09694 149.88803 36269 ft 406 kts 229°
2026-04-21 04:49 -35.12975 149.83228 36364 ft 402 kts 229°
2026-04-21 04:49 -35.16207 149.77721 36363 ft 401 kts 229°
2026-04-21 04:50 -35.19459 149.72175 36366 ft 401 kts 229°
2026-04-21 04:50 -35.22710 149.66630 36363 ft 401 kts 229°
2026-04-21 04:51 -35.25960 149.61082 36361 ft 401 kts 229°
2026-04-21 04:51 -35.29202 149.55523 36357 ft 401 kts 229°
2026-04-21 04:52 -35.32440 149.49975 36356 ft 400 kts 229°
2026-04-21 04:52 -35.35678 149.44426 36358 ft 400 kts 229°
2026-04-21 04:53 -35.38909 149.38870 36361 ft 401 kts 229°
2026-04-21 04:53 -35.42134 149.33298 36365 ft 401 kts 229°
2026-04-21 04:54 -35.45366 149.27731 36366 ft 401 kts 229°
2026-04-21 04:54 -35.48594 149.22153 36364 ft 401 kts 229°
2026-04-21 04:55 -35.51799 149.16599 36362 ft 401 kts 229°
2026-04-21 04:55 -35.55020 149.11015 36351 ft 401 kts 229°
2026-04-21 04:56 -35.58240 149.05420 36350 ft 401 kts 229°
2026-04-21 04:56 -35.59851 149.02615 36247 ft 401 kts 232°
2026-04-21 04:56 -35.61465 148.99802 36333 ft 405 kts 232°
2026-04-21 04:57 -35.64716 148.94135 36343 ft 405 kts 233°
2026-04-21 04:57 -35.67962 148.88476 36351 ft 405 kts 233°
2026-04-21 04:58 -35.71196 148.82822 36347 ft 404 kts 233°
2026-04-21 04:58 -35.74429 148.77163 36333 ft 404 kts 233°
2026-04-21 04:59 -35.77659 148.71504 36334 ft 404 kts 233°
2026-04-21 04:59 -35.80887 148.65836 36326 ft 403 kts 233°
2026-04-21 05:00 -35.84107 148.60168 36329 ft 403 kts 233°
2026-04-21 05:00 -35.88926 148.51656 36331 ft 404 kts 233°
2026-04-21 05:01 -35.92132 148.45976 36317 ft 404 kts 233°
2026-04-21 05:01 -35.95337 148.40284 36318 ft 404 kts 233°
2026-04-21 05:02 -35.98519 148.34624 36310 ft 403 kts 233°
2026-04-21 05:02 -36.01718 148.28929 36306 ft 404 kts 233°
2026-04-21 05:03 -36.04912 148.23223 36312 ft 404 kts 233°
2026-04-21 05:03 -36.08101 148.17514 36310 ft 404 kts 233°
2026-04-21 05:04 -36.11289 148.11797 36307 ft 404 kts 233°
2026-04-21 05:04 -36.14486 148.06075 36311 ft 404 kts 233°
2026-04-21 05:05 -36.17683 148.00352 36301 ft 404 kts 233°
2026-04-21 05:05 -36.20886 147.94621 36298 ft 405 kts 233°
2026-04-21 05:06 -36.24084 147.88892 36299 ft 404 kts 234°
2026-04-21 05:06 -36.27271 147.83148 36296 ft 405 kts 234°
2026-04-21 05:07 -36.30459 147.77396 36298 ft 405 kts 234°
2026-04-21 05:07 -36.33657 147.71642 36302 ft 405 kts 234°
2026-04-21 05:08 -36.36847 147.65874 36301 ft 405 kts 234°
2026-04-21 05:08 -36.40020 147.60098 36299 ft 405 kts 234°
2026-04-21 05:09 -36.43201 147.54311 36302 ft 405 kts 234°
2026-04-21 05:09 -36.46386 147.48527 36304 ft 405 kts 234°
2026-04-21 05:10 -36.49559 147.42741 36303 ft 405 kts 234°
2026-04-21 05:10 -36.52706 147.36982 36303 ft 405 kts 234°
2026-04-21 05:11 -36.55873 147.31175 36305 ft 406 kts 234°
2026-04-21 05:11 -36.59042 147.25358 36305 ft 406 kts 234°
2026-04-21 05:12 -36.60628 147.22443 36195 ft 407 kts 234°
2026-04-21 05:12 -36.62211 147.19536 35945 ft 405 kts 234°
2026-04-21 05:12 -36.63790 147.16637 35692 ft 404 kts 234°
2026-04-21 05:12 -36.65365 147.13746 35442 ft 402 kts 234°
2026-04-21 05:13 -36.66932 147.10866 35200 ft 401 kts 235°
2026-04-21 05:13 -36.68490 147.07994 34961 ft 399 kts 235°
2026-04-21 05:13 -36.70039 147.05133 34722 ft 398 kts 235°
2026-04-21 05:13 -36.71582 147.02279 34486 ft 397 kts 235°
2026-04-21 05:14 -36.73122 146.99431 34248 ft 395 kts 235°
2026-04-21 05:14 -36.74654 146.96594 33971 ft 394 kts 235°
2026-04-21 05:14 -36.76182 146.93766 33700 ft 393 kts 235°
2026-04-21 05:14 -36.77706 146.90947 33431 ft 391 kts 235°
2026-04-21 05:15 -36.79225 146.88136 33165 ft 390 kts 235°
2026-04-21 05:15 -36.80736 146.85335 32903 ft 388 kts 235°
2026-04-21 05:15 -36.82238 146.82544 32638 ft 387 kts 235°
2026-04-21 05:15 -36.83735 146.79758 32394 ft 386 kts 235°
2026-04-21 05:16 -36.85226 146.76982 32132 ft 385 kts 235°
2026-04-21 05:16 -36.86715 146.74206 31875 ft 383 kts 235°
2026-04-21 05:16 -36.87761 146.72254 31703 ft 383 kts 235°
2026-04-21 05:16 -36.88025 146.71762 31662 ft 382 kts 235°
2026-04-21 05:17 -36.89501 146.69006 31409 ft 381 kts 235°
2026-04-21 05:17 -36.90972 146.66260 31164 ft 380 kts 235°
2026-04-21 05:17 -36.92313 146.63748 30944 ft 379 kts 235°
2026-04-21 05:17 -36.93557 146.61421 30735 ft 378 kts 235°
2026-04-21 05:18 -36.95016 146.58695 30496 ft 376 kts 235°
2026-04-21 05:18 -36.96468 146.55977 30236 ft 375 kts 235°
2026-04-21 05:18 -36.97914 146.53269 29955 ft 374 kts 235°
2026-04-21 05:18 -36.99354 146.50568 29674 ft 373 kts 235°
2026-04-21 05:19 -37.00786 146.47877 29395 ft 371 kts 235°
2026-04-21 05:19 -37.02217 146.45189 29124 ft 370 kts 235°
2026-04-21 05:19 -37.03645 146.42511 28863 ft 369 kts 235°
2026-04-21 05:19 -37.05065 146.39840 28589 ft 368 kts 235°
2026-04-21 05:20 -37.06482 146.37173 28337 ft 366 kts 235°
2026-04-21 05:20 -37.07875 146.34542 28045 ft 361 kts 235°
2026-04-21 05:20 -37.09260 146.31925 27676 ft 359 kts 235°
2026-04-21 05:20 -37.10635 146.29329 27298 ft 356 kts 235°
2026-04-21 05:21 -37.12004 146.26745 26917 ft 354 kts 235°
2026-04-21 05:21 -37.13356 146.24191 26538 ft 352 kts 235°
2026-04-21 05:21 -37.14697 146.21649 26162 ft 349 kts 235°
2026-04-21 05:21 -37.16031 146.19118 25765 ft 347 kts 235°
2026-04-21 05:22 -37.17350 146.16614 25381 ft 345 kts 235°
2026-04-21 05:22 -37.18671 146.14110 24987 ft 344 kts 235°
2026-04-21 05:22 -37.19991 146.11612 24591 ft 343 kts 235°
2026-04-21 05:22 -37.21306 146.09123 24185 ft 342 kts 235°
2026-04-21 05:23 -37.22617 146.06631 23759 ft 341 kts 235°
2026-04-21 05:23 -37.23920 146.04148 23328 ft 340 kts 235°
2026-04-21 05:23 -37.25214 146.01686 22919 ft 337 kts 234°
2026-04-21 05:23 -37.26501 145.99239 22521 ft 334 kts 234°
2026-04-21 05:24 -37.27775 145.96807 22123 ft 332 kts 234°
2026-04-21 05:24 -37.29040 145.94391 21726 ft 330 kts 234°
2026-04-21 05:24 -37.30296 145.91990 21330 ft 328 kts 234°
2026-04-21 05:24 -37.31550 145.89595 20937 ft 327 kts 234°
2026-04-21 05:25 -37.32798 145.87216 20543 ft 325 kts 234°
2026-04-21 05:25 -37.34041 145.84852 20153 ft 324 kts 234°
2026-04-21 05:25 -37.35279 145.82496 19760 ft 322 kts 234°
2026-04-21 05:25 -37.36497 145.80176 19378 ft 321 kts 234°
2026-04-21 05:26 -37.37727 145.77835 18991 ft 320 kts 234°
2026-04-21 05:26 -37.38952 145.75496 18601 ft 320 kts 234°
2026-04-21 05:26 -37.40174 145.73161 18175 ft 319 kts 234°
2026-04-21 05:26 -37.41388 145.70840 17791 ft 316 kts 234°
2026-04-21 05:27 -37.42593 145.68534 17407 ft 314 kts 234°
2026-04-21 05:27 -37.43787 145.66247 17029 ft 312 kts 234°
2026-04-21 05:27 -37.44577 145.64732 16778 ft 311 kts 234°
2026-04-21 05:27 -37.46196 145.61732 16277 ft 309 kts 232°
2026-04-21 05:28 -37.47028 145.60282 16030 ft 308 kts 232°
2026-04-21 05:28 -37.48730 145.57398 15547 ft 306 kts 231°
2026-04-21 05:28 -37.49569 145.55985 15300 ft 305 kts 231°
2026-04-21 05:28 -37.50833 145.53843 14935 ft 304 kts 232°
2026-04-21 05:29 -37.52088 145.51701 14571 ft 303 kts 232°
2026-04-21 05:29 -37.53337 145.49562 14211 ft 303 kts 232°
2026-04-21 05:29 -37.54583 145.47425 13817 ft 302 kts 232°
2026-04-21 05:29 -37.55822 145.45294 13446 ft 300 kts 232°
2026-04-21 05:30 -37.57049 145.43177 13080 ft 298 kts 232°
2026-04-21 05:30 -37.58271 145.41072 12720 ft 296 kts 232°
2026-04-21 05:30 -37.59481 145.38982 12362 ft 295 kts 233°
2026-04-21 05:30 -37.60688 145.36897 12015 ft 293 kts 233°
2026-04-21 05:31 -37.61885 145.34822 11643 ft 292 kts 233°
2026-04-21 05:31 -37.63081 145.32750 11298 ft 291 kts 233°
2026-04-21 05:31 -37.64272 145.30686 10936 ft 291 kts 233°
2026-04-21 05:31 -37.65460 145.28627 10580 ft 289 kts 233°
2026-04-21 05:32 -37.66662 145.26542 9961 ft 298 kts 234°
2026-04-21 05:32 -37.67867 145.24448 9760 ft 290 kts 234°
2026-04-21 05:32 -37.69038 145.22411 9460 ft 286 kts 234°
2026-04-21 05:32 -37.70206 145.20376 9115 ft 285 kts 234°
2026-04-21 05:33 -37.71363 145.18358 8666 ft 283 kts 234°
2026-04-21 05:33 -37.72515 145.16353 8198 ft 281 kts 234°
2026-04-21 05:33 -37.73659 145.14363 7745 ft 276 kts 234°
2026-04-21 05:33 -37.74757 145.12454 7547 ft 261 kts 234°
2026-04-21 05:34 -37.75811 145.10619 7151 ft 256 kts 235°
2026-04-21 05:34 -37.76851 145.08811 6795 ft 252 kts 235°
2026-04-21 05:34 -37.77890 145.07001 6263 ft 253 kts 235°
2026-04-21 05:34 -37.78921 145.05197 5734 ft 252 kts 236°
2026-04-21 05:35 -37.79949 145.03398 5245 ft 252 kts 235°
2026-04-21 05:35 -37.80944 145.01605 4781 ft 250 kts 241°
2026-04-21 05:35 -37.81599 144.99578 4241 ft 248 kts 258°
2026-04-21 05:35 -37.81970 144.97437 3736 ft 248 kts 260°
2026-04-21 05:36 -37.82329 144.95377 3622 ft 232 kts 260°
2026-04-21 05:36 -37.82651 144.93460 3530 ft 214 kts 262°
2026-04-21 05:36 -37.82887 144.91692 3472 ft 194 kts 263°
2026-04-21 05:36 -37.83081 144.90099 3362 ft 170 kts 264°
2026-04-21 05:37 -37.83150 144.88728 3261 ft 144 kts 282°
2026-04-21 05:37 -37.82794 144.87612 3205 ft 134 kts 308°
2026-04-21 05:37 -37.82126 144.86823 3049 ft 131 kts 332°
2026-04-21 05:37 -37.81271 144.86473 2882 ft 130 kts 354°
2026-04-21 05:38 -37.80382 144.86315 2709 ft 128 kts 353°
2026-04-21 05:38 -37.79504 144.86150 2519 ft 127 kts 352°
2026-04-21 05:38 -37.78633 144.85985 2350 ft 127 kts 352°
2026-04-21 05:38 -37.77759 144.85820 2175 ft 126 kts 352°
2026-04-21 05:39 -37.76889 144.85656 2011 ft 126 kts 352°
2026-04-21 05:39 -37.76019 144.85492 1813 ft 126 kts 353°
2026-04-21 05:39 -37.75151 144.85330 1645 ft 126 kts 354°
2026-04-21 05:39 -37.74278 144.85167 1485 ft 127 kts 353°
2026-04-21 05:40 -37.73407 144.85004 1317 ft 127 kts 353°
2026-04-21 05:40 -37.72543 144.84842 1146 ft 125 kts 353°
2026-04-21 05:40 -37.71677 144.84690 1004 ft 125 kts 353°
2026-04-21 05:40 -37.70811 144.84535 829 ft 125 kts 352°
2026-04-21 05:41 -37.69951 144.84368 638 ft 124 kts 352°
2026-04-21 05:41 -37.69092 144.84200 479 ft 124 kts 353°
2026-04-21 05:41 -37.68238 144.84033 367 ft 119 kts 353°
2026-04-21 05:41 -37.67560 144.83910 374 ft 75 kts 352°
2026-04-21 05:42 -37.67208 144.83844 389 ft 35 kts 352°
2026-04-21 05:42 -37.66938 144.83867 393 ft 37 kts 19°
2026-04-21 05:42 -37.66797 144.83935 394 ft 0 kts 22°
2026-04-21 05:43 -37.66794 144.83937 396 ft 2 kts 22°
2026-04-21 05:43 -37.66754 144.83968 398 ft 10 kts 40°
2026-04-21 05:43 -37.66719 144.84050 401 ft 12 kts 82°
2026-04-21 05:43 -37.66750 144.84164 402 ft 16 kts 127°
2026-04-21 05:44 -37.66859 144.84205 393 ft 17 kts 171°
2026-04-21 05:44 -37.66985 144.84229 394 ft 20 kts 173°
2026-04-21 05:44 -37.67112 144.84253 389 ft 19 kts 171°
2026-04-21 05:44 -37.67257 144.84279 384 ft 22 kts 172°
2026-04-21 05:45 -37.67410 144.84308 379 ft 20 kts 171°
2026-04-21 05:45 -37.67473 144.84405 378 ft 17 kts 81°
2026-04-21 05:45 -37.67456 144.84546 380 ft 16 kts 81°
2026-04-21 05:45 -37.67439 144.84685 383 ft 14 kts 81°
2026-04-21 05:46 -37.67427 144.84805 386 ft 8 kts 84°
2026-04-21 05:46 -37.67469 144.84828 384 ft 10 kts 172°
2026-04-21 05:46 -37.67530 144.84839 382 ft 1 kts 172°